Time,TemperatureF,DewpointF,PressureIn,WindDirection,WindDirectionDegrees,WindSpeedMPH,WindSpeedGustMPH,Humidity,HourlyPrecipIn,Conditions,Clouds,dailyrainin,SoftwareType,DateUTC
2013-05-07 00:02:00,58.4,37.7,30.09,ESE,113,9.0,-999.0,46,0.00,,,0.02,Wunderground v.1.15,2013-05-07 05:02:00,
2013-05-07 00:07:00,58.4,37.7,30.09,ESE,113,9.0,-999.0,46,0.00,,,0.02,Wunderground v.1.15,2013-05-07 05:07:00,
2013-05-07 00:12:00,58.4,37.7,30.09,ESE,113,9.0,-999.0,46,0.00,,,0.02,Wunderground v.1.15,2013-05-07 05:12:00,
2013-05-07 00:17:00,58.4,37.7,30.09,ESE,113,9.0,-999.0,46,0.00,,,0.02,Wunderground v.1.15,2013-05-07 05:17:00,
2013-05-07 00:22:00,58.4,37.7,30.09,ESE,113,9.0,-999.0,46,0.00,,,0.02,Wunderground v.1.15,2013-05-07 05:22:00,
2013-05-07 00:27:00,58.4,37.7,30.09,ESE,113,9.0,-999.0,46,0.00,,,0.02,Wunderground v.1.15,2013-05-07 05:27:00,
2013-05-07 00:32:00,58.4,37.7,30.09,ESE,113,9.0,-999.0,46,0.00,,,0.02,Wunderground v.1.15,2013-05-07 05:32:00,
2013-05-07 00:37:00,58.4,37.7,30.09,ESE,113,9.0,-999.0,46,0.00,,,0.02,Wunderground v.1.15,2013-05-07 05:37:00,
2013-05-07 00:42:00,58.4,37.7,30.09,ESE,113,9.0,-999.0,46,0.00,,,0.02,Wunderground v.1.15,2013-05-07 05:42:00,
2013-05-07 00:47:00,58.0,37.3,30.09,ESE,113,7.0,-999.0,46,0.00,,,0.02,Wunderground v.1.15,2013-05-07 05:47:00,
2013-05-07 00:52:00,58.0,37.3,30.09,ESE,113,7.0,-999.0,46,0.00,,,0.02,Wunderground v.1.15,2013-05-07 05:52:00,
2013-05-07 00:57:00,58.0,37.3,30.09,ESE,113,7.0,-999.0,46,0.00,,,0.02,Wunderground v.1.15,2013-05-07 05:57:00,
2013-05-07 01:02:00,58.0,37.3,30.09,ESE,113,7.0,-999.0,46,0.00,,,0.02,Wunderground v.1.15,2013-05-07 06:02:00,
2013-05-07 01:07:00,58.0,37.3,30.09,ESE,113,7.0,-999.0,46,0.00,,,0.02,Wunderground v.1.15,2013-05-07 06:07:00,
2013-05-07 01:12:00,58.0,37.3,30.09,ESE,113,7.0,-999.0,46,0.00,,,0.02,Wunderground v.1.15,2013-05-07 06:12:00,
2013-05-07 01:17:00,57.2,36.6,30.09,ESE,113,8.0,-999.0,46,0.00,,,0.02,Wunderground v.1.15,2013-05-07 06:17:00,
2013-05-07 01:22:00,57.2,36.6,30.09,ESE,113,8.0,-999.0,46,0.00,,,0.02,Wunderground v.1.15,2013-05-07 06:22:00,
2013-05-07 01:27:00,57.2,36.6,30.09,ESE,113,8.0,-999.0,46,0.00,,,0.02,Wunderground v.1.15,2013-05-07 06:27:00,
2013-05-07 01:32:00,57.2,36.6,30.09,ESE,113,8.0,-999.0,46,0.00,,,0.02,Wunderground v.1.15,2013-05-07 06:32:00,
2013-05-07 01:37:00,57.2,36.6,30.09,ESE,113,8.0,-999.0,46,0.00,,,0.02,Wunderground v.1.15,2013-05-07 06:37:00,
2013-05-07 01:42:00,57.2,36.6,30.09,ESE,113,8.0,-999.0,46,0.00,,,0.02,Wunderground v.1.15,2013-05-07 06:42:00,
2013-05-07 01:47:00,56.5,36.5,30.09,ESE,113,8.0,-999.0,47,0.00,,,0.02,Wunderground v.1.15,2013-05-07 06:47:00,
2013-05-07 01:52:00,56.5,36.5,30.09,ESE,113,8.0,-999.0,47,0.00,,,0.02,Wunderground v.1.15,2013-05-07 06:52:00,
2013-05-07 01:57:00,56.5,36.5,30.09,ESE,113,8.0,-999.0,47,0.00,,,0.02,Wunderground v.1.15,2013-05-07 06:57:00,
2013-05-07 02:02:00,56.5,36.5,30.09,ESE,113,8.0,-999.0,47,0.00,,,0.02,Wunderground v.1.15,2013-05-07 07:02:00,
2013-05-07 02:07:00,56.5,36.5,30.09,ESE,113,8.0,-999.0,47,0.00,,,0.02,Wunderground v.1.15,2013-05-07 07:07:00,
2013-05-07 02:12:00,56.5,36.5,30.09,ESE,113,8.0,-999.0,47,0.00,,,0.02,Wunderground v.1.15,2013-05-07 07:12:00,
2013-05-07 02:17:00,55.2,37.4,30.08,ESE,113,9.0,-999.0,51,0.00,,,0.02,Wunderground v.1.15,2013-05-07 07:17:00,
2013-05-07 02:22:00,55.2,37.4,30.08,ESE,113,9.0,-999.0,51,0.00,,,0.02,Wunderground v.1.15,2013-05-07 07:22:00,
2013-05-07 02:27:00,55.2,37.4,30.08,ESE,113,9.0,-999.0,51,0.00,,,0.02,Wunderground v.1.15,2013-05-07 07:27:00,
2013-05-07 02:32:00,55.2,37.4,30.08,ESE,113,9.0,-999.0,51,0.00,,,0.02,Wunderground v.1.15,2013-05-07 07:32:00,
2013-05-07 02:37:00,55.2,37.4,30.08,ESE,113,9.0,-999.0,51,0.00,,,0.02,Wunderground v.1.15,2013-05-07 07:37:00,
2013-05-07 02:42:00,55.2,37.4,30.08,ESE,113,9.0,-999.0,51,0.00,,,0.02,Wunderground v.1.15,2013-05-07 07:42:00,
2013-05-07 02:47:00,54.5,37.7,30.07,ESE,113,12.0,-999.0,53,0.00,,,0.02,Wunderground v.1.15,2013-05-07 07:47:00,
2013-05-07 02:52:00,54.5,37.7,30.07,ESE,113,12.0,-999.0,53,0.00,,,0.02,Wunderground v.1.15,2013-05-07 07:52:00,
2013-05-07 02:57:00,54.5,37.7,30.07,ESE,113,12.0,-999.0,53,0.00,,,0.02,Wunderground v.1.15,2013-05-07 07:57:00,
2013-05-07 03:02:00,54.5,37.7,30.07,ESE,113,12.0,-999.0,53,0.00,,,0.02,Wunderground v.1.15,2013-05-07 08:02:00,
2013-05-07 03:07:00,54.5,37.7,30.07,ESE,113,12.0,-999.0,53,0.00,,,0.02,Wunderground v.1.15,2013-05-07 08:07:00,
2013-05-07 03:12:00,54.5,37.7,30.07,ESE,113,12.0,-999.0,53,0.00,,,0.02,Wunderground v.1.15,2013-05-07 08:12:00,
2013-05-07 03:17:00,53.7,37.9,30.07,ESE,113,12.0,-999.0,55,0.00,,,0.02,Wunderground v.1.15,2013-05-07 08:17:00,
2013-05-07 03:22:00,53.7,37.9,30.07,ESE,113,12.0,-999.0,55,0.00,,,0.02,Wunderground v.1.15,2013-05-07 08:22:00,
2013-05-07 03:27:00,53.7,37.9,30.07,ESE,113,12.0,-999.0,55,0.00,,,0.02,Wunderground v.1.15,2013-05-07 08:27:00,
2013-05-07 03:32:00,53.7,37.9,30.07,ESE,113,12.0,-999.0,55,0.00,,,0.02,Wunderground v.1.15,2013-05-07 08:32:00,
2013-05-07 03:37:00,53.7,37.9,30.07,ESE,113,12.0,-999.0,55,0.00,,,0.02,Wunderground v.1.15,2013-05-07 08:37:00,
2013-05-07 03:42:00,53.7,37.9,30.07,ESE,113,12.0,-999.0,55,0.00,,,0.02,Wunderground v.1.15,2013-05-07 08:42:00,
2013-05-07 03:47:00,53.1,38.7,30.07,ESE,113,11.0,-999.0,58,0.00,,,0.02,Wunderground v.1.15,2013-05-07 08:47:00,
2013-05-07 03:52:00,53.1,38.7,30.07,ESE,113,11.0,-999.0,58,0.00,,,0.02,Wunderground v.1.15,2013-05-07 08:52:00,
2013-05-07 03:57:00,53.1,38.7,30.07,ESE,113,11.0,-999.0,58,0.00,,,0.02,Wunderground v.1.15,2013-05-07 08:57:00,
2013-05-07 04:02:00,53.1,38.7,30.07,ESE,113,11.0,-999.0,58,0.00,,,0.02,Wunderground v.1.15,2013-05-07 09:02:00,
2013-05-07 04:07:00,53.1,38.7,30.07,ESE,113,11.0,-999.0,58,0.00,,,0.02,Wunderground v.1.15,2013-05-07 09:07:00,
2013-05-07 04:12:00,53.1,38.7,30.07,ESE,113,11.0,-999.0,58,0.00,,,0.02,Wunderground v.1.15,2013-05-07 09:12:00,
2013-05-07 04:17:00,53.5,41.2,30.07,ESE,113,9.0,-999.0,63,0.00,,,0.02,Wunderground v.1.15,2013-05-07 09:17:00,
2013-05-07 04:22:00,53.5,41.2,30.07,ESE,113,9.0,-999.0,63,0.00,,,0.02,Wunderground v.1.15,2013-05-07 09:22:00,
2013-05-07 04:27:00,53.5,41.2,30.07,ESE,113,9.0,-999.0,63,0.00,,,0.02,Wunderground v.1.15,2013-05-07 09:27:00,
2013-05-07 04:32:00,53.5,41.2,30.07,ESE,113,9.0,-999.0,63,0.00,,,0.02,Wunderground v.1.15,2013-05-07 09:32:00,
2013-05-07 04:37:00,53.5,41.2,30.07,ESE,113,9.0,-999.0,63,0.00,,,0.02,Wunderground v.1.15,2013-05-07 09:37:00,
2013-05-07 04:42:00,53.5,41.2,30.07,ESE,113,9.0,-999.0,63,0.00,,,0.02,Wunderground v.1.15,2013-05-07 09:42:00,
2013-05-07 04:47:00,54.7,43.6,30.06,ESE,113,10.0,-999.0,66,0.00,,,0.02,Wunderground v.1.15,2013-05-07 09:47:00,
2013-05-07 04:52:00,54.7,43.6,30.06,ESE,113,10.0,-999.0,66,0.00,,,0.02,Wunderground v.1.15,2013-05-07 09:52:00,
2013-05-07 04:57:00,54.7,43.6,30.06,ESE,113,10.0,-999.0,66,0.00,,,0.02,Wunderground v.1.15,2013-05-07 09:57:00,
2013-05-07 05:02:00,54.7,43.6,30.06,ESE,113,10.0,-999.0,66,0.00,,,0.02,Wunderground v.1.15,2013-05-07 10:02:00,
2013-05-07 05:07:00,54.7,43.6,30.06,ESE,113,10.0,-999.0,66,0.00,,,0.02,Wunderground v.1.15,2013-05-07 10:07:00,
2013-05-07 05:12:00,54.7,43.6,30.06,ESE,113,10.0,-999.0,66,0.00,,,0.02,Wunderground v.1.15,2013-05-07 10:12:00,
2013-05-07 05:17:00,55.5,44.3,30.06,SE,135,12.0,-999.0,66,0.00,,,0.02,Wunderground v.1.15,2013-05-07 10:17:00,
2013-05-07 05:22:00,55.5,44.3,30.06,SE,135,12.0,-999.0,66,0.00,,,0.02,Wunderground v.1.15,2013-05-07 10:22:00,
2013-05-07 05:27:00,55.5,44.3,30.06,SE,135,12.0,-999.0,66,0.00,,,0.02,Wunderground v.1.15,2013-05-07 10:27:00,
2013-05-07 05:32:00,55.5,44.3,30.06,SE,135,12.0,-999.0,66,0.00,,,0.02,Wunderground v.1.15,2013-05-07 10:32:00,
2013-05-07 05:37:00,55.5,44.3,30.06,SE,135,12.0,-999.0,66,0.00,,,0.02,Wunderground v.1.15,2013-05-07 10:37:00,
2013-05-07 05:42:00,55.5,44.3,30.06,SE,135,12.0,-999.0,66,0.00,,,0.02,Wunderground v.1.15,2013-05-07 10:42:00,
2013-05-07 05:47:00,55.3,45.3,30.06,ESE,113,14.0,-999.0,69,0.00,,,0.02,Wunderground v.1.15,2013-05-07 10:47:00,
2013-05-07 05:52:00,55.3,45.3,30.06,ESE,113,14.0,-999.0,69,0.00,,,0.02,Wunderground v.1.15,2013-05-07 10:52:00,
2013-05-07 05:57:00,55.3,45.3,30.06,ESE,113,14.0,-999.0,69,0.00,,,0.02,Wunderground v.1.15,2013-05-07 10:57:00,
2013-05-07 06:02:00,55.3,45.3,30.06,ESE,113,14.0,-999.0,69,0.00,,,0.02,Wunderground v.1.15,2013-05-07 11:02:00,
2013-05-07 06:07:00,55.3,45.3,30.06,ESE,113,14.0,-999.0,69,0.00,,,0.02,Wunderground v.1.15,2013-05-07 11:07:00,
2013-05-07 06:12:00,55.3,45.3,30.06,ESE,113,14.0,-999.0,69,0.00,,,0.02,Wunderground v.1.15,2013-05-07 11:12:00,
2013-05-07 06:17:00,54.8,46.3,30.06,ESE,113,16.0,-999.0,73,0.00,,,0.02,Wunderground v.1.15,2013-05-07 11:17:00,
2013-05-07 06:22:00,54.8,46.3,30.06,ESE,113,16.0,-999.0,73,0.00,,,0.02,Wunderground v.1.15,2013-05-07 11:22:00,
2013-05-07 06:27:00,54.8,46.3,30.06,ESE,113,16.0,-999.0,73,0.00,,,0.02,Wunderground v.1.15,2013-05-07 11:27:00,
2013-05-07 06:32:00,54.8,46.3,30.06,ESE,113,16.0,-999.0,73,0.00,,,0.02,Wunderground v.1.15,2013-05-07 11:32:00,
2013-05-07 06:37:00,54.8,46.3,30.06,ESE,113,16.0,-999.0,73,0.00,,,0.02,Wunderground v.1.15,2013-05-07 11:37:00,
2013-05-07 06:42:00,54.8,46.3,30.06,ESE,113,16.0,-999.0,73,0.00,,,0.02,Wunderground v.1.15,2013-05-07 11:42:00,
2013-05-07 06:47:00,54.2,46.8,30.06,ESE,113,15.0,-999.0,76,0.00,,,0.02,Wunderground v.1.15,2013-05-07 11:47:00,
2013-05-07 06:52:00,54.2,46.8,30.06,ESE,113,15.0,-999.0,76,0.00,,,0.02,Wunderground v.1.15,2013-05-07 11:52:00,
2013-05-07 06:57:00,54.2,46.8,30.06,ESE,113,15.0,-999.0,76,0.00,,,0.02,Wunderground v.1.15,2013-05-07 11:57:00,
2013-05-07 07:02:00,54.2,46.8,30.06,ESE,113,15.0,-999.0,76,0.00,,,0.02,Wunderground v.1.15,2013-05-07 12:02:00,
2013-05-07 07:07:00,54.2,46.8,30.06,ESE,113,15.0,-999.0,76,0.00,,,0.02,Wunderground v.1.15,2013-05-07 12:07:00,
2013-05-07 07:12:00,54.2,46.8,30.06,ESE,113,15.0,-999.0,76,0.00,,,0.02,Wunderground v.1.15,2013-05-07 12:12:00,
2013-05-07 07:17:00,53.4,47.4,30.07,East,90,12.0,-999.0,80,0.00,,,0.02,Wunderground v.1.15,2013-05-07 12:17:00,
2013-05-07 07:22:00,53.4,47.4,30.07,East,90,12.0,-999.0,80,0.00,,,0.02,Wunderground v.1.15,2013-05-07 12:22:00,
2013-05-07 07:27:00,53.4,47.4,30.07,East,90,12.0,-999.0,80,0.00,,,0.02,Wunderground v.1.15,2013-05-07 12:27:00,
2013-05-07 07:32:00,53.4,47.4,30.07,East,90,12.0,-999.0,80,0.00,,,0.02,Wunderground v.1.15,2013-05-07 12:32:00,
2013-05-07 07:37:00,53.4,47.4,30.07,East,90,12.0,-999.0,80,0.00,,,0.02,Wunderground v.1.15,2013-05-07 12:37:00,
2013-05-07 07:42:00,53.4,47.4,30.07,East,90,12.0,-999.0,80,0.00,,,0.02,Wunderground v.1.15,2013-05-07 12:42:00,
2013-05-07 07:47:00,52.8,47.8,30.07,East,90,11.0,-999.0,83,0.00,,,0.02,Wunderground v.1.15,2013-05-07 12:47:00,
2013-05-07 07:52:00,52.8,47.8,30.07,East,90,11.0,-999.0,83,0.00,,,0.02,Wunderground v.1.15,2013-05-07 12:52:00,
2013-05-07 07:57:00,52.8,47.8,30.07,East,90,11.0,-999.0,83,0.00,,,0.02,Wunderground v.1.15,2013-05-07 12:57:00,
2013-05-07 08:02:00,52.8,47.8,30.07,East,90,11.0,-999.0,83,0.00,,,0.02,Wunderground v.1.15,2013-05-07 13:02:00,
2013-05-07 08:07:00,52.8,47.8,30.07,East,90,11.0,-999.0,83,0.00,,,0.02,Wunderground v.1.15,2013-05-07 13:07:00,
2013-05-07 08:12:00,52.8,47.8,30.07,East,90,11.0,-999.0,83,0.00,,,0.02,Wunderground v.1.15,2013-05-07 13:12:00,
2013-05-07 08:17:00,53.0,48.6,30.07,East,90,8.0,-999.0,85,0.00,,,0.02,Wunderground v.1.15,2013-05-07 13:17:00,
2013-05-07 08:22:00,53.0,48.6,30.07,East,90,8.0,-999.0,85,0.00,,,0.02,Wunderground v.1.15,2013-05-07 13:22:00,
2013-05-07 08:27:00,53.0,48.6,30.07,East,90,8.0,-999.0,85,0.00,,,0.02,Wunderground v.1.15,2013-05-07 13:27:00,
2013-05-07 08:32:00,53.0,48.6,30.07,East,90,8.0,-999.0,85,0.00,,,0.02,Wunderground v.1.15,2013-05-07 13:32:00,
2013-05-07 08:37:00,53.0,48.6,30.07,East,90,8.0,-999.0,85,0.00,,,0.02,Wunderground v.1.15,2013-05-07 13:37:00,
2013-05-07 08:42:00,53.0,48.6,30.07,East,90,8.0,-999.0,85,0.00,,,0.02,Wunderground v.1.15,2013-05-07 13:42:00,
2013-05-07 08:47:00,53.5,49.1,30.07,ESE,113,10.0,-999.0,85,0.00,,,0.02,Wunderground v.1.15,2013-05-07 13:47:00,
2013-05-07 08:52:00,53.5,49.1,30.07,ESE,113,10.0,-999.0,85,0.00,,,0.02,Wunderground v.1.15,2013-05-07 13:52:00,
2013-05-07 08:57:00,53.5,49.1,30.07,ESE,113,10.0,-999.0,85,0.00,,,0.02,Wunderground v.1.15,2013-05-07 13:57:00,
2013-05-07 09:02:00,53.5,49.1,30.07,ESE,113,10.0,-999.0,85,0.00,,,0.02,Wunderground v.1.15,2013-05-07 14:02:00,
2013-05-07 09:07:00,53.5,49.1,30.07,ESE,113,10.0,-999.0,85,0.00,,,0.02,Wunderground v.1.15,2013-05-07 14:07:00,
2013-05-07 09:12:00,53.5,49.1,30.07,ESE,113,10.0,-999.0,85,0.00,,,0.02,Wunderground v.1.15,2013-05-07 14:12:00,
2013-05-07 09:17:00,53.2,49.1,30.06,ESE,113,11.0,-999.0,86,0.01,,,0.02,Wunderground v.1.15,2013-05-07 14:17:00,
2013-05-07 09:22:00,53.2,49.1,30.06,ESE,113,11.0,-999.0,86,0.01,,,0.02,Wunderground v.1.15,2013-05-07 14:22:00,
2013-05-07 09:27:00,53.2,49.1,30.06,ESE,113,11.0,-999.0,86,0.01,,,0.02,Wunderground v.1.15,2013-05-07 14:27:00,
2013-05-07 09:32:00,53.2,49.1,30.06,ESE,113,11.0,-999.0,86,0.01,,,0.02,Wunderground v.1.15,2013-05-07 14:32:00,
2013-05-07 09:37:00,53.2,49.1,30.06,ESE,113,11.0,-999.0,86,0.01,,,0.02,Wunderground v.1.15,2013-05-07 14:37:00,
2013-05-07 09:42:00,53.2,49.1,30.06,ESE,113,11.0,-999.0,86,0.01,,,0.02,Wunderground v.1.15,2013-05-07 14:42:00,
2013-05-07 09:47:00,53.4,49.3,30.06,ESE,113,12.0,-999.0,86,0.01,,,0.02,Wunderground v.1.15,2013-05-07 14:47:00,
2013-05-07 09:52:00,53.4,49.3,30.06,ESE,113,12.0,-999.0,86,0.01,,,0.02,Wunderground v.1.15,2013-05-07 14:52:00,
2013-05-07 09:57:00,53.4,49.3,30.06,ESE,113,12.0,-999.0,86,0.01,,,0.02,Wunderground v.1.15,2013-05-07 14:57:00,
2013-05-07 10:02:00,53.4,49.3,30.06,ESE,113,12.0,-999.0,86,0.01,,,0.02,Wunderground v.1.15,2013-05-07 15:02:00,
2013-05-07 10:07:00,53.4,49.3,30.06,ESE,113,12.0,-999.0,86,0.01,,,0.02,Wunderground v.1.15,2013-05-07 15:07:00,
2013-05-07 10:12:00,53.4,49.3,30.06,ESE,113,12.0,-999.0,86,0.01,,,0.02,Wunderground v.1.15,2013-05-07 15:12:00,
2013-05-07 10:17:00,53.9,49.8,30.06,ESE,113,11.0,-999.0,86,0.00,,,0.02,Wunderground v.1.15,2013-05-07 15:17:00,
2013-05-07 10:22:00,53.9,49.8,30.06,ESE,113,11.0,-999.0,86,0.00,,,0.02,Wunderground v.1.15,2013-05-07 15:22:00,
2013-05-07 10:27:00,53.9,49.8,30.06,ESE,113,11.0,-999.0,86,0.00,,,0.02,Wunderground v.1.15,2013-05-07 15:27:00,
2013-05-07 10:32:00,53.9,49.8,30.06,ESE,113,11.0,-999.0,86,0.00,,,0.02,Wunderground v.1.15,2013-05-07 15:32:00,
2013-05-07 10:37:00,53.9,49.8,30.06,ESE,113,11.0,-999.0,86,0.00,,,0.02,Wunderground v.1.15,2013-05-07 15:37:00,
2013-05-07 10:42:00,53.9,49.8,30.06,ESE,113,11.0,-999.0,86,0.00,,,0.02,Wunderground v.1.15,2013-05-07 15:42:00,
2013-05-07 10:47:00,54.1,50.0,30.05,ESE,113,11.0,-999.0,86,0.01,,,0.02,Wunderground v.1.15,2013-05-07 15:47:00,
2013-05-07 10:52:00,54.1,50.0,30.05,ESE,113,11.0,-999.0,86,0.01,,,0.02,Wunderground v.1.15,2013-05-07 15:52:00,
2013-05-07 10:57:00,54.1,50.0,30.05,ESE,113,11.0,-999.0,86,0.01,,,0.02,Wunderground v.1.15,2013-05-07 15:57:00,
2013-05-07 11:02:00,54.1,50.0,30.05,ESE,113,11.0,-999.0,86,0.01,,,0.02,Wunderground v.1.15,2013-05-07 16:02:00,
2013-05-07 11:07:00,54.1,50.0,30.05,ESE,113,11.0,-999.0,86,0.01,,,0.02,Wunderground v.1.15,2013-05-07 16:07:00,
2013-05-07 11:12:00,54.1,50.0,30.05,ESE,113,11.0,-999.0,86,0.01,,,0.02,Wunderground v.1.15,2013-05-07 16:12:00,
2013-05-07 11:17:00,55.3,50.9,30.05,East,90,9.0,-999.0,85,0.01,,,0.02,Wunderground v.1.15,2013-05-07 16:17:00,
2013-05-07 11:22:00,55.3,50.9,30.05,East,90,9.0,-999.0,85,0.01,,,0.02,Wunderground v.1.15,2013-05-07 16:22:00,
2013-05-07 11:27:00,55.3,50.9,30.05,East,90,9.0,-999.0,85,0.01,,,0.02,Wunderground v.1.15,2013-05-07 16:27:00,
2013-05-07 11:32:00,55.3,50.9,30.05,East,90,9.0,-999.0,85,0.01,,,0.02,Wunderground v.1.15,2013-05-07 16:32:00,
2013-05-07 11:37:00,55.3,50.9,30.05,East,90,9.0,-999.0,85,0.01,,,0.02,Wunderground v.1.15,2013-05-07 16:37:00,
2013-05-07 11:42:00,55.3,50.9,30.05,East,90,9.0,-999.0,85,0.01,,,0.02,Wunderground v.1.15,2013-05-07 16:42:00,
2013-05-07 11:47:00,57.1,51.0,30.05,East,90,9.0,-999.0,80,0.00,,,0.02,Wunderground v.1.15,2013-05-07 16:47:00,
2013-05-07 11:52:00,57.1,51.0,30.05,East,90,9.0,-999.0,80,0.00,,,0.02,Wunderground v.1.15,2013-05-07 16:52:00,
2013-05-07 11:57:00,57.1,51.0,30.05,East,90,9.0,-999.0,80,0.00,,,0.02,Wunderground v.1.15,2013-05-07 16:57:00,
2013-05-07 12:02:00,57.1,51.0,30.05,East,90,9.0,-999.0,80,0.00,,,0.02,Wunderground v.1.15,2013-05-07 17:02:00,
2013-05-07 12:07:00,57.1,51.0,30.05,East,90,9.0,-999.0,80,0.00,,,0.02,Wunderground v.1.15,2013-05-07 17:07:00,
2013-05-07 12:12:00,57.1,51.0,30.05,East,90,9.0,-999.0,80,0.00,,,0.02,Wunderground v.1.15,2013-05-07 17:12:00,
2013-05-07 12:17:00,58.7,51.5,30.04,East,90,9.0,-999.0,77,0.00,,,0.02,Wunderground v.1.15,2013-05-07 17:17:00,
2013-05-07 12:22:00,58.7,51.5,30.04,East,90,9.0,-999.0,77,0.00,,,0.02,Wunderground v.1.15,2013-05-07 17:22:00,
2013-05-07 12:27:00,58.7,51.5,30.04,East,90,9.0,-999.0,77,0.00,,,0.02,Wunderground v.1.15,2013-05-07 17:27:00,
2013-05-07 12:32:00,58.7,51.5,30.04,East,90,9.0,-999.0,77,0.00,,,0.02,Wunderground v.1.15,2013-05-07 17:32:00,
2013-05-07 12:37:00,58.7,51.5,30.04,East,90,9.0,-999.0,77,0.00,,,0.02,Wunderground v.1.15,2013-05-07 17:37:00,
2013-05-07 12:42:00,58.7,51.5,30.04,East,90,9.0,-999.0,77,0.00,,,0.02,Wunderground v.1.15,2013-05-07 17:42:00,
2013-05-07 12:47:00,60.0,51.7,30.03,ESE,113,10.0,-999.0,74,0.00,,,0.02,Wunderground v.1.15,2013-05-07 17:47:00,
2013-05-07 12:52:00,60.0,51.7,30.03,ESE,113,10.0,-999.0,74,0.00,,,0.02,Wunderground v.1.15,2013-05-07 17:52:00,
2013-05-07 12:57:00,60.0,51.7,30.03,ESE,113,10.0,-999.0,74,0.00,,,0.02,Wunderground v.1.15,2013-05-07 17:57:00,
2013-05-07 13:02:00,60.0,51.7,30.03,ESE,113,10.0,-999.0,74,0.00,,,0.02,Wunderground v.1.15,2013-05-07 18:02:00,
2013-05-07 13:07:00,60.0,51.7,30.03,ESE,113,10.0,-999.0,74,0.00,,,0.02,Wunderground v.1.15,2013-05-07 18:07:00,
2013-05-07 13:12:00,60.0,51.7,30.03,ESE,113,10.0,-999.0,74,0.00,,,0.02,Wunderground v.1.15,2013-05-07 18:12:00,
2013-05-07 13:17:00,61.8,51.1,30.01,ESE,113,11.0,-999.0,68,0.00,,,0.02,Wunderground v.1.15,2013-05-07 18:17:00,
2013-05-07 13:22:00,61.8,51.1,30.01,ESE,113,11.0,-999.0,68,0.00,,,0.02,Wunderground v.1.15,2013-05-07 18:22:00,
2013-05-07 13:27:00,61.8,51.1,30.01,ESE,113,11.0,-999.0,68,0.00,,,0.02,Wunderground v.1.15,2013-05-07 18:27:00,
2013-05-07 13:32:00,61.8,51.1,30.01,ESE,113,11.0,-999.0,68,0.00,,,0.02,Wunderground v.1.15,2013-05-07 18:32:00,
2013-05-07 13:37:00,61.8,51.1,30.01,ESE,113,11.0,-999.0,68,0.00,,,0.02,Wunderground v.1.15,2013-05-07 18:37:00,
2013-05-07 13:42:00,61.8,51.1,30.01,ESE,113,11.0,-999.0,68,0.00,,,0.02,Wunderground v.1.15,2013-05-07 18:42:00,
2013-05-07 13:47:00,61.5,50.8,30.00,ESE,113,15.0,-999.0,68,0.00,,,0.02,Wunderground v.1.15,2013-05-07 18:47:00,
2013-05-07 13:52:00,61.5,50.8,30.00,ESE,113,15.0,-999.0,68,0.00,,,0.02,Wunderground v.1.15,2013-05-07 18:52:00,
2013-05-07 13:57:00,61.5,50.8,30.00,ESE,113,15.0,-999.0,68,0.00,,,0.02,Wunderground v.1.15,2013-05-07 18:57:00,
2013-05-07 14:02:00,61.5,50.8,30.00,ESE,113,15.0,-999.0,68,0.00,,,0.02,Wunderground v.1.15,2013-05-07 19:02:00,
2013-05-07 14:07:00,61.5,50.8,30.00,ESE,113,15.0,-999.0,68,0.00,,,0.02,Wunderground v.1.15,2013-05-07 19:07:00,
2013-05-07 14:12:00,61.5,50.8,30.00,ESE,113,15.0,-999.0,68,0.00,,,0.02,Wunderground v.1.15,2013-05-07 19:12:00,
2013-05-07 14:17:00,58.0,51.2,30.00,SE,135,15.0,-999.0,78,0.00,,,0.02,Wunderground v.1.15,2013-05-07 19:17:00,
2013-05-07 14:22:00,58.0,51.2,30.00,SE,135,15.0,-999.0,78,0.00,,,0.02,Wunderground v.1.15,2013-05-07 19:22:00,
2013-05-07 14:27:00,58.0,51.2,30.00,SE,135,15.0,-999.0,78,0.00,,,0.02,Wunderground v.1.15,2013-05-07 19:27:00,
2013-05-07 14:32:00,58.0,51.2,30.00,SE,135,15.0,-999.0,78,0.00,,,0.02,Wunderground v.1.15,2013-05-07 19:32:00,
2013-05-07 14:37:00,58.0,51.2,30.00,SE,135,15.0,-999.0,78,0.00,,,0.02,Wunderground v.1.15,2013-05-07 19:37:00,
2013-05-07 14:42:00,58.0,51.2,30.00,SE,135,15.0,-999.0,78,0.00,,,0.02,Wunderground v.1.15,2013-05-07 19:42:00,
2013-05-07 14:47:00,59.4,52.5,29.99,SE,135,9.0,-999.0,78,0.00,,,0.02,Wunderground v.1.15,2013-05-07 19:47:00,
2013-05-07 14:52:00,59.4,52.5,29.99,SE,135,9.0,-999.0,78,0.00,,,0.02,Wunderground v.1.15,2013-05-07 19:52:00,
2013-05-07 14:57:00,59.4,52.5,29.99,SE,135,9.0,-999.0,78,0.00,,,0.02,Wunderground v.1.15,2013-05-07 19:57:00,
2013-05-07 15:02:00,59.4,52.5,29.99,SE,135,9.0,-999.0,78,0.00,,,0.02,Wunderground v.1.15,2013-05-07 20:02:00,
2013-05-07 15:07:00,59.4,52.5,29.99,SE,135,9.0,-999.0,78,0.00,,,0.02,Wunderground v.1.15,2013-05-07 20:07:00,
2013-05-07 15:12:00,59.4,52.5,29.99,SE,135,9.0,-999.0,78,0.00,,,0.02,Wunderground v.1.15,2013-05-07 20:12:00,
2013-05-07 15:17:00,60.8,52.8,29.99,East,90,9.0,-999.0,75,0.00,,,0.02,Wunderground v.1.15,2013-05-07 20:17:00,
2013-05-07 15:22:00,60.8,52.8,29.99,East,90,9.0,-999.0,75,0.00,,,0.02,Wunderground v.1.15,2013-05-07 20:22:00,
2013-05-07 15:27:00,60.8,52.8,29.99,East,90,9.0,-999.0,75,0.00,,,0.02,Wunderground v.1.15,2013-05-07 20:27:00,
2013-05-07 15:32:00,60.8,52.8,29.99,East,90,9.0,-999.0,75,0.00,,,0.02,Wunderground v.1.15,2013-05-07 20:32:00,
2013-05-07 15:37:00,60.8,52.8,29.99,East,90,9.0,-999.0,75,0.00,,,0.02,Wunderground v.1.15,2013-05-07 20:37:00,
2013-05-07 15:42:00,60.8,52.8,29.99,East,90,9.0,-999.0,75,0.00,,,0.02,Wunderground v.1.15,2013-05-07 20:42:00,
2013-05-07 15:47:00,63.4,48.4,29.97,SE,135,14.0,-999.0,58,0.00,,,0.02,Wunderground v.1.15,2013-05-07 20:47:00,
2013-05-07 15:52:00,63.4,48.4,29.97,SE,135,14.0,-999.0,58,0.00,,,0.02,Wunderground v.1.15,2013-05-07 20:52:00,
2013-05-07 15:57:00,63.4,48.4,29.97,SE,135,14.0,-999.0,58,0.00,,,0.02,Wunderground v.1.15,2013-05-07 20:57:00,
2013-05-07 16:02:00,63.4,48.4,29.97,SE,135,14.0,-999.0,58,0.00,,,0.02,Wunderground v.1.15,2013-05-07 21:02:00,
2013-05-07 16:07:00,63.4,48.4,29.97,SE,135,14.0,-999.0,58,0.00,,,0.02,Wunderground v.1.15,2013-05-07 21:07:00,
2013-05-07 16:12:00,63.4,48.4,29.97,SE,135,14.0,-999.0,58,0.00,,,0.02,Wunderground v.1.15,2013-05-07 21:12:00,
2013-05-07 16:17:00,62.1,48.5,29.97,SE,135,19.0,-999.0,61,0.00,,,0.02,Wunderground v.1.15,2013-05-07 21:17:00,
2013-05-07 16:22:00,62.1,48.5,29.97,SE,135,19.0,-999.0,61,0.00,,,0.02,Wunderground v.1.15,2013-05-07 21:22:00,
2013-05-07 16:27:00,62.1,48.5,29.97,SE,135,19.0,-999.0,61,0.00,,,0.02,Wunderground v.1.15,2013-05-07 21:27:00,
2013-05-07 16:32:00,62.1,48.5,29.97,SE,135,19.0,-999.0,61,0.00,,,0.02,Wunderground v.1.15,2013-05-07 21:32:00,
2013-05-07 16:37:00,62.1,48.5,29.97,SE,135,19.0,-999.0,61,0.00,,,0.02,Wunderground v.1.15,2013-05-07 21:37:00,
2013-05-07 16:42:00,62.1,48.5,29.97,SE,135,19.0,-999.0,61,0.00,,,0.02,Wunderground v.1.15,2013-05-07 21:42:00,
2013-05-07 16:47:00,61.7,48.5,29.97,East,90,15.0,-999.0,62,0.00,,,0.02,Wunderground v.1.15,2013-05-07 21:47:00,
2013-05-07 16:52:00,61.7,48.5,29.97,East,90,15.0,-999.0,62,0.00,,,0.02,Wunderground v.1.15,2013-05-07 21:52:00,
2013-05-07 16:57:00,61.7,48.5,29.97,East,90,15.0,-999.0,62,0.00,,,0.02,Wunderground v.1.15,2013-05-07 21:57:00,
2013-05-07 17:02:00,61.7,48.5,29.97,East,90,15.0,-999.0,62,0.00,,,0.02,Wunderground v.1.15,2013-05-07 22:02:00,
2013-05-07 17:07:00,61.7,48.5,29.97,East,90,15.0,-999.0,62,0.00,,,0.02,Wunderground v.1.15,2013-05-07 22:07:00,
2013-05-07 17:12:00,61.7,48.5,29.97,East,90,15.0,-999.0,62,0.00,,,0.02,Wunderground v.1.15,2013-05-07 22:12:00,
2013-05-07 17:17:00,62.3,50.0,29.96,East,90,13.0,-999.0,64,0.00,,,0.02,Wunderground v.1.15,2013-05-07 22:17:00,
2013-05-07 17:22:00,62.3,50.0,29.96,East,90,13.0,-999.0,64,0.00,,,0.02,Wunderground v.1.15,2013-05-07 22:22:00,
2013-05-07 17:27:00,62.3,50.0,29.96,East,90,13.0,-999.0,64,0.00,,,0.02,Wunderground v.1.15,2013-05-07 22:27:00,
2013-05-07 17:32:00,62.3,50.0,29.96,East,90,13.0,-999.0,64,0.00,,,0.02,Wunderground v.1.15,2013-05-07 22:32:00,
2013-05-07 17:37:00,62.3,50.0,29.96,East,90,13.0,-999.0,64,0.00,,,0.02,Wunderground v.1.15,2013-05-07 22:37:00,
2013-05-07 17:42:00,62.3,50.0,29.96,East,90,13.0,-999.0,64,0.00,,,0.02,Wunderground v.1.15,2013-05-07 22:42:00,
2013-05-07 17:47:00,63.1,50.3,29.95,East,90,13.0,-999.0,63,0.00,,,0.02,Wunderground v.1.15,2013-05-07 22:47:00,
2013-05-07 17:52:00,63.1,50.3,29.95,East,90,13.0,-999.0,63,0.00,,,0.02,Wunderground v.1.15,2013-05-07 22:52:00,
2013-05-07 17:57:00,63.1,50.3,29.95,East,90,13.0,-999.0,63,0.00,,,0.02,Wunderground v.1.15,2013-05-07 22:57:00,
2013-05-07 18:02:00,63.1,50.3,29.95,East,90,13.0,-999.0,63,0.00,,,0.02,Wunderground v.1.15,2013-05-07 23:02:00,
2013-05-07 18:07:00,63.1,50.3,29.95,East,90,13.0,-999.0,63,0.00,,,0.02,Wunderground v.1.15,2013-05-07 23:07:00,
2013-05-07 18:12:00,63.1,50.3,29.95,East,90,13.0,-999.0,63,0.00,,,0.02,Wunderground v.1.15,2013-05-07 23:12:00,
2013-05-07 18:17:00,63.5,50.7,29.94,East,90,16.0,-999.0,63,0.00,,,0.02,Wunderground v.1.15,2013-05-07 23:17:00,
2013-05-07 18:22:00,63.5,50.7,29.94,East,90,16.0,-999.0,63,0.00,,,0.02,Wunderground v.1.15,2013-05-07 23:22:00,
2013-05-07 18:27:00,63.5,50.7,29.94,East,90,16.0,-999.0,63,0.00,,,0.02,Wunderground v.1.15,2013-05-07 23:27:00,
2013-05-07 18:32:00,63.5,50.7,29.94,East,90,16.0,-999.0,63,0.00,,,0.02,Wunderground v.1.15,2013-05-07 23:32:00,
2013-05-07 18:37:00,63.5,50.7,29.94,East,90,16.0,-999.0,63,0.00,,,0.02,Wunderground v.1.15,2013-05-07 23:37:00,
2013-05-07 18:42:00,63.5,50.7,29.94,East,90,16.0,-999.0,63,0.00,,,0.02,Wunderground v.1.15,2013-05-07 23:42:00,
2013-05-07 18:47:00,61.8,50.7,29.94,East,90,16.0,-999.0,67,0.00,,,0.02,Wunderground v.1.15,2013-05-07 23:47:00,
2013-05-07 18:52:00,61.8,50.7,29.94,East,90,16.0,-999.0,67,0.00,,,0.02,Wunderground v.1.15,2013-05-07 23:52:00,
2013-05-07 18:57:00,61.8,50.7,29.94,East,90,16.0,-999.0,67,0.00,,,0.02,Wunderground v.1.15,2013-05-07 23:57:00,
2013-05-07 19:02:00,61.8,50.7,29.94,East,90,16.0,-999.0,67,0.00,,,0.02,Wunderground v.1.15,2013-05-08 00:02:00,
2013-05-07 19:07:00,61.8,50.7,29.94,East,90,16.0,-999.0,67,0.00,,,0.02,Wunderground v.1.15,2013-05-08 00:07:00,
2013-05-07 19:12:00,61.8,50.7,29.94,East,90,16.0,-999.0,67,0.00,,,0.02,Wunderground v.1.15,2013-05-08 00:12:00,
2013-05-07 19:17:00,61.5,50.4,29.94,East,90,14.0,-999.0,67,0.00,,,0.02,Wunderground v.1.15,2013-05-08 00:17:00,
2013-05-07 19:22:00,61.5,50.4,29.94,East,90,14.0,-999.0,67,0.00,,,0.02,Wunderground v.1.15,2013-05-08 00:22:00,
2013-05-07 19:27:00,61.5,50.4,29.94,East,90,14.0,-999.0,67,0.00,,,0.02,Wunderground v.1.15,2013-05-08 00:27:00,
2013-05-07 19:32:00,61.5,50.4,29.94,East,90,14.0,-999.0,67,0.00,,,0.02,Wunderground v.1.15,2013-05-08 00:32:00,
2013-05-07 19:37:00,61.5,50.4,29.94,East,90,14.0,-999.0,67,0.00,,,0.02,Wunderground v.1.15,2013-05-08 00:37:00,
2013-05-07 19:42:00,61.5,50.4,29.94,East,90,14.0,-999.0,67,0.00,,,0.02,Wunderground v.1.15,2013-05-08 00:42:00,
2013-05-07 19:47:00,60.5,50.7,29.95,ENE,68,13.0,-999.0,70,0.00,,,0.02,Wunderground v.1.15,2013-05-08 00:47:00,
2013-05-07 19:52:00,60.5,50.7,29.95,ENE,68,13.0,-999.0,70,0.00,,,0.02,Wunderground v.1.15,2013-05-08 00:52:00,
2013-05-07 19:57:00,60.5,50.7,29.95,ENE,68,13.0,-999.0,70,0.00,,,0.02,Wunderground v.1.15,2013-05-08 00:57:00,
2013-05-07 20:02:00,60.5,50.7,29.95,ENE,68,13.0,-999.0,70,0.00,,,0.02,Wunderground v.1.15,2013-05-08 01:02:00,
2013-05-07 20:07:00,60.5,50.7,29.95,ENE,68,13.0,-999.0,70,0.00,,,0.02,Wunderground v.1.15,2013-05-08 01:07:00,
2013-05-07 20:12:00,60.5,50.7,29.95,ENE,68,13.0,-999.0,70,0.00,,,0.02,Wunderground v.1.15,2013-05-08 01:12:00,
2013-05-07 20:17:00,59.6,50.6,29.95,East,90,15.0,-999.0,72,0.00,,,0.02,Wunderground v.1.15,2013-05-08 01:17:00,
2013-05-07 20:22:00,59.6,50.6,29.95,East,90,15.0,-999.0,72,0.00,,,0.02,Wunderground v.1.15,2013-05-08 01:22:00,
2013-05-07 20:27:00,59.6,50.6,29.95,East,90,15.0,-999.0,72,0.00,,,0.02,Wunderground v.1.15,2013-05-08 01:27:00,
2013-05-07 20:32:00,59.6,50.6,29.95,East,90,15.0,-999.0,72,0.00,,,0.02,Wunderground v.1.15,2013-05-08 01:32:00,
2013-05-07 20:37:00,59.6,50.6,29.95,East,90,15.0,-999.0,72,0.00,,,0.02,Wunderground v.1.15,2013-05-08 01:37:00,
2013-05-07 20:42:00,59.6,50.6,29.95,East,90,15.0,-999.0,72,0.00,,,0.02,Wunderground v.1.15,2013-05-08 01:42:00,
2013-05-07 20:47:00,59.3,51.4,29.96,East,90,15.0,-999.0,75,0.00,,,0.02,Wunderground v.1.15,2013-05-08 01:47:00,
2013-05-07 20:52:00,59.3,51.4,29.96,East,90,15.0,-999.0,75,0.00,,,0.02,Wunderground v.1.15,2013-05-08 01:52:00,
2013-05-07 20:57:00,59.3,51.4,29.96,East,90,15.0,-999.0,75,0.00,,,0.02,Wunderground v.1.15,2013-05-08 01:57:00,
2013-05-07 21:02:00,59.3,51.4,29.96,East,90,15.0,-999.0,75,0.00,,,0.02,Wunderground v.1.15,2013-05-08 02:02:00,
2013-05-07 21:07:00,59.3,51.4,29.96,East,90,15.0,-999.0,75,0.00,,,0.02,Wunderground v.1.15,2013-05-08 02:07:00,
2013-05-07 21:12:00,59.3,51.4,29.96,East,90,15.0,-999.0,75,0.00,,,0.02,Wunderground v.1.15,2013-05-08 02:12:00,
2013-05-07 21:17:00,59.1,51.5,29.97,ENE,68,11.0,-999.0,76,0.00,,,0.02,Wunderground v.1.15,2013-05-08 02:17:00,
2013-05-07 21:22:00,59.1,51.5,29.97,ENE,68,11.0,-999.0,76,0.00,,,0.02,Wunderground v.1.15,2013-05-08 02:22:00,
2013-05-07 21:27:00,59.1,51.5,29.97,ENE,68,11.0,-999.0,76,0.00,,,0.02,Wunderground v.1.15,2013-05-08 02:27:00,
2013-05-07 21:32:00,59.1,51.5,29.97,ENE,68,11.0,-999.0,76,0.00,,,0.02,Wunderground v.1.15,2013-05-08 02:32:00,
2013-05-07 21:37:00,59.1,51.5,29.97,ENE,68,11.0,-999.0,76,0.00,,,0.02,Wunderground v.1.15,2013-05-08 02:37:00,
2013-05-07 21:42:00,59.1,51.5,29.97,ENE,68,11.0,-999.0,76,0.00,,,0.02,Wunderground v.1.15,2013-05-08 02:42:00,
2013-05-07 21:47:00,59.0,51.4,29.96,ENE,68,11.0,-999.0,76,0.00,,,0.02,Wunderground v.1.15,2013-05-08 02:47:00,
2013-05-07 21:52:00,59.0,51.4,29.96,ENE,68,11.0,-999.0,76,0.00,,,0.02,Wunderground v.1.15,2013-05-08 02:52:00,
2013-05-07 21:57:00,59.0,51.4,29.96,ENE,68,11.0,-999.0,76,0.00,,,0.02,Wunderground v.1.15,2013-05-08 02:57:00,
2013-05-07 22:02:00,59.0,51.4,29.96,ENE,68,11.0,-999.0,76,0.00,,,0.02,Wunderground v.1.15,2013-05-08 03:02:00,
2013-05-07 22:07:00,59.0,51.4,29.96,ENE,68,11.0,-999.0,76,0.00,,,0.02,Wunderground v.1.15,2013-05-08 03:07:00,
2013-05-07 22:12:00,59.0,51.4,29.96,ENE,68,11.0,-999.0,76,0.00,,,0.02,Wunderground v.1.15,2013-05-08 03:12:00,
2013-05-07 22:17:00,57.4,50.6,29.97,ENE,68,12.0,-999.0,78,0.00,,,0.02,Wunderground v.1.15,2013-05-08 03:17:00,
2013-05-07 22:22:00,57.4,50.6,29.97,ENE,68,12.0,-999.0,78,0.00,,,0.02,Wunderground v.1.15,2013-05-08 03:22:00,
2013-05-07 22:27:00,57.4,50.6,29.97,ENE,68,12.0,-999.0,78,0.00,,,0.02,Wunderground v.1.15,2013-05-08 03:27:00,
2013-05-07 22:32:00,57.4,50.6,29.97,ENE,68,12.0,-999.0,78,0.00,,,0.02,Wunderground v.1.15,2013-05-08 03:32:00,
2013-05-07 22:37:00,57.4,50.6,29.97,ENE,68,12.0,-999.0,78,0.00,,,0.02,Wunderground v.1.15,2013-05-08 03:37:00,
2013-05-07 22:42:00,57.4,50.6,29.97,ENE,68,12.0,-999.0,78,0.00,,,0.02,Wunderground v.1.15,2013-05-08 03:42:00,
2013-05-07 22:47:00,56.2,50.8,29.98,NE,45,12.0,-999.0,82,0.00,,,0.02,Wunderground v.1.15,2013-05-08 03:47:00,
2013-05-07 22:52:00,56.2,50.8,29.98,NE,45,12.0,-999.0,82,0.00,,,0.02,Wunderground v.1.15,2013-05-08 03:52:00,
2013-05-07 22:57:00,56.2,50.8,29.98,NE,45,12.0,-999.0,82,0.00,,,0.02,Wunderground v.1.15,2013-05-08 03:57:00,
2013-05-07 23:02:00,56.2,50.8,29.98,NE,45,12.0,-999.0,82,0.00,,,0.02,Wunderground v.1.15,2013-05-08 04:02:00,
2013-05-07 23:07:00,56.2,50.8,29.98,NE,45,12.0,-999.0,82,0.00,,,0.02,Wunderground v.1.15,2013-05-08 04:07:00,
2013-05-07 23:12:00,56.2,50.8,29.98,NE,45,12.0,-999.0,82,0.00,,,0.02,Wunderground v.1.15,2013-05-08 04:12:00,
2013-05-07 23:17:00,55.5,50.7,29.98,ENE,68,14.0,-999.0,84,0.00,,,0.02,Wunderground v.1.15,2013-05-08 04:17:00,
2013-05-07 23:22:00,55.5,50.7,29.98,ENE,68,14.0,-999.0,84,0.00,,,0.02,Wunderground v.1.15,2013-05-08 04:22:00,
2013-05-07 23:27:00,55.5,50.7,29.98,ENE,68,14.0,-999.0,84,0.00,,,0.02,Wunderground v.1.15,2013-05-08 04:27:00,
2013-05-07 23:32:00,55.5,50.7,29.98,ENE,68,14.0,-999.0,84,0.00,,,0.02,Wunderground v.1.15,2013-05-08 04:32:00,
2013-05-07 23:37:00,55.5,50.7,29.98,ENE,68,14.0,-999.0,84,0.00,,,0.02,Wunderground v.1.15,2013-05-08 04:37:00,
2013-05-07 23:42:00,55.5,50.7,29.98,ENE,68,14.0,-999.0,84,0.00,,,0.02,Wunderground v.1.15,2013-05-08 04:42:00,
2013-05-07 23:47:00,55.5,51.4,29.97,ENE,68,12.0,-999.0,86,0.00,,,0.02,Wunderground v.1.15,2013-05-08 04:47:00,
2013-05-07 23:52:00,55.5,51.4,29.97,ENE,68,12.0,-999.0,86,0.00,,,0.02,Wunderground v.1.15,2013-05-08 04:52:00,
2013-05-07 23:57:00,55.5,51.4,29.97,ENE,68,12.0,-999.0,86,0.00,,,0.02,Wunderground v.1.15,2013-05-08 04:57:00,